Weather in Belomestnoye

Russia / Belgorod Oblast     50°41′34″N   37°43′36″E
temp.,
°C
wind,
m/s
gust,
m/s
humid.,
%
clouds,
%
prec.,
mm/h
press.,
hPa
HPBL,
m
8 march, mon
mon800:00−1wsw9159299 0.4 10081027
03:00−1wsw7138898 0.8 1007730
06:00−1wsw71295100 0.5 1006756
09:000wsw81289100 1.1 1006880
12:00+1wsw71087100 0.6 1007846
15:000wnw5788100 1.9 1007604
18:00−1wnw258199 0.3 1008265
21:00−3nw238671 0.3 101079
9 march, tue
tue900:00−3nw2585100 0.1 1010313
03:00−4wnw248593 0.1 1011279
06:00−4nw4687100 0.1 1012487
09:00−5nnw5780100 0.2 1014636
12:00−4nnw566571 0.0 1015982
15:00−4nnw676786 0.1 10171076
18:00−6nnw5773100 0.1 1019990
21:00−8nnw5873100 0.1 1021756
10 march, wed
wed1000:00−9nnw47717 0.0 1023730
03:00−9nnw467943 0.0 1024601
06:00−10nnw468154 0.0 1026547
09:00−10nnw477137 0.0 1027535
12:00−8nnw46530 0.0 1028837
15:00−6nnw45483 0.0 1028968
18:00−7n345788 0.0 1027825
21:00−9nne347687 0.0 1029450
11 march, thu
thu1100:00−10ne447391 0.0 1030452
03:00−12ene346595 0.0 1031411
06:00−13ene456684 0.0 1032394
09:00−13ene455944 0.0 1033391
12:00−10e45400 0.0 1033716
15:00−8e34362 0.0 1033999
18:00−8e33413 0.0 1032950
21:00−9ese34502 0.0 1033589
12 march, fri
fri1200:00−10se35560 0.0 1034496
03:00−11se36620 0.0 1033446
06:00−12se35660 0.0 1034326
09:00−11sse57550 0.0 1034438
12:00−8sse57410 0.0 1033680
15:00−5sse573633 0.0 1032886
18:00−5sse5836100 0.0 1031888
21:00−6sse5114099 0.0 1031670